Saint Bonnet de Bellac- Haute Vienne - France
Donnes mto: vendredi, 17/08/2012
Date Horaire Temp. E. Hum. E. P.atmo. Pluie Vent Direction Direction Ensoleilleme Solaire P. de rose Temp au vent Rafales
17/08/2012 00:00 19,1 C 65 % 1016,3 hPa 0,0 mm 3,6 km/h (1 Bft) E-SE 112 0 min 0 W/m 12,4 C 19,1 C 6,5 km/h (2 Bft)
17/08/2012 00:10 18,8 C 65 % 1016,4 hPa 0,0 mm 2,5 km/h (1 Bft) E-SE 112 0 min 0 W/m 12,1 C 18,8 C 6,1 km/h (2 Bft)
17/08/2012 00:20 18,6 C 66 % 1016,4 hPa 0,0 mm 2,2 km/h (1 Bft) SE 135 0 min 0 W/m 12,1 C 18,6 C 4,3 km/h (1 Bft)
17/08/2012 00:30 18,3 C 66 % 1016,4 hPa 0,0 mm 2,2 km/h (1 Bft) E 90 0 min 0 W/m 11,8 C 18,3 C 4,3 km/h (1 Bft)
17/08/2012 00:40 18,2 C 67 % 1016,4 hPa 0,0 mm 3,6 km/h (1 Bft) E 90 0 min 0 W/m 12,0 C 18,2 C 7,2 km/h (2 Bft)
17/08/2012 00:50 17,9 C 68 % 1016,5 hPa 0,0 mm 3,2 km/h (1 Bft) E-SE 112 0 min 0 W/m 11,9 C 17,9 C 4,0 km/h (1 Bft)
17/08/2012 01:00 17,7 C 69 % 1016,6 hPa 0,0 mm 0,0 km/h (0 Bft) E-SE 112 0 min 0 W/m 11,9 C 17,7 C 0,0 km/h (0 Bft)
17/08/2012 01:10 17,4 C 69 % 1016,6 hPa 0,0 mm 1,8 km/h (1 Bft) E-SE 112 0 min 0 W/m 11,7 C 17,4 C 1,8 km/h (1 Bft)
17/08/2012 01:20 17,2 C 70 % 1016,5 hPa 0,0 mm 2,5 km/h (1 Bft) E-SE 112 0 min 0 W/m 11,7 C 17,2 C 4,3 km/h (1 Bft)
17/08/2012 01:30 16,9 C 71 % 1016,5 hPa 0,0 mm 0,0 km/h (0 Bft) SE 135 0 min 0 W/m 11,6 C 16,9 C 0,0 km/h (0 Bft)
17/08/2012 01:40 16,8 C 71 % 1016,5 hPa 0,0 mm 1,4 km/h (1 Bft) SE 135 0 min 0 W/m 11,5 C 16,8 C 4,3 km/h (1 Bft)
17/08/2012 01:50 16,6 C 71 % 1016,5 hPa 0,0 mm 0,0 km/h (0 Bft) SE 135 0 min 0 W/m 11,3 C 16,6 C 0,0 km/h (0 Bft)
17/08/2012 02:00 16,5 C 71 % 1016,4 hPa 0,0 mm 0,0 km/h (0 Bft) E-SE 112 0 min 0 W/m 11,2 C 16,5 C 0,0 km/h (0 Bft)
17/08/2012 02:10 16,4 C 71 % 1016,4 hPa 0,0 mm 0,4 km/h (0 Bft) E-SE 112 0 min 0 W/m 11,1 C 16,4 C 3,6 km/h (1 Bft)
17/08/2012 02:20 16,3 C 72 % 1016,4 hPa 0,0 mm 3,2 km/h (1 Bft) E-SE 112 0 min 0 W/m 11,2 C 16,3 C 6,1 km/h (2 Bft)
17/08/2012 02:30 16,1 C 73 % 1016,4 hPa 0,0 mm 1,1 km/h (1 Bft) E 90 0 min 0 W/m 11,3 C 16,1 C 1,1 km/h (1 Bft)
17/08/2012 02:40 15,9 C 74 % 1016,4 hPa 0,0 mm 4,0 km/h (1 Bft) E 90 0 min 0 W/m 11,3 C 15,9 C 6,8 km/h (2 Bft)
17/08/2012 02:50 15,8 C 74 % 1016,4 hPa 0,0 mm 1,1 km/h (1 Bft) E-SE 112 0 min 0 W/m 11,2 C 15,8 C 2,9 km/h (1 Bft)
17/08/2012 03:02 15,8 C 75 % 1016,3 hPa 0,0 mm 4,3 km/h (1 Bft) E-SE 112 0 min 0 W/m 11,4 C 15,8 C 7,2 km/h (2 Bft)
17/08/2012 03:10 15,7 C 74 % 1016,3 hPa 0,0 mm 3,6 km/h (1 Bft) S-SE 157 0 min 0 W/m 11,1 C 15,7 C 3,6 km/h (1 Bft)
17/08/2012 03:20 15,8 C 74 % 1016,4 hPa 0,0 mm 1,8 km/h (1 Bft) E-SE 112 0 min 0 W/m 11,2 C 15,8 C 3,2 km/h (1 Bft)
17/08/2012 03:30 15,7 C 74 % 1016,5 hPa 0,0 mm 2,2 km/h (1 Bft) E-SE 112 0 min 0 W/m 11,1 C 15,7 C 3,2 km/h (1 Bft)
17/08/2012 03:40 15,6 C 74 % 1016,5 hPa 0,0 mm 3,2 km/h (1 Bft) E-SE 112 0 min 0 W/m 11,0 C 15,6 C 4,3 km/h (1 Bft)
17/08/2012 03:50 15,4 C 74 % 1016,4 hPa 0,0 mm 1,4 km/h (1 Bft) E-NE 67 0 min 0 W/m 10,8 C 15,4 C 1,4 km/h (1 Bft)
17/08/2012 04:00 15,4 C 74 % 1016,5 hPa 0,0 mm 1,1 km/h (1 Bft) E-SE 112 0 min 0 W/m 10,8 C 15,4 C 1,1 km/h (1 Bft)
17/08/2012 04:10 15,3 C 74 % 1016,5 hPa 0,0 mm 1,4 km/h (1 Bft) E-SE 112 0 min 0 W/m 10,7 C 15,3 C 4,0 km/h (1 Bft)
17/08/2012 04:20 15,3 C 74 % 1016,5 hPa 0,0 mm 0,0 km/h (0 Bft) E 90 0 min 0 W/m 10,7 C 15,3 C 0,0 km/h (0 Bft)
17/08/2012 04:30 15,3 C 74 % 1016,4 hPa 0,0 mm 0,4 km/h (0 Bft) E-SE 112 0 min 0 W/m 10,7 C 15,3 C 3,6 km/h (1 Bft)
17/08/2012 04:40 15,3 C 74 % 1016,5 hPa 0,0 mm 1,8 km/h (1 Bft) E-SE 112 0 min 0 W/m 10,7 C 15,3 C 3,6 km/h (1 Bft)
17/08/2012 04:50 15,3 C 74 % 1016,5 hPa 0,0 mm 2,5 km/h (1 Bft) E-SE 112 0 min 0 W/m 10,7 C 15,3 C 2,9 km/h (1 Bft)
17/08/2012 05:00 15,2 C 74 % 1016,5 hPa 0,0 mm 0,4 km/h (0 Bft) E-SE 112 0 min 0 W/m 10,6 C 15,2 C 4,0 km/h (1 Bft)
17/08/2012 05:10 15,1 C 74 % 1016,5 hPa 0,0 mm 2,9 km/h (1 Bft) E-SE 112 0 min 0 W/m 10,5 C 15,1 C 6,5 km/h (2 Bft)
17/08/2012 05:20 15,1 C 75 % 1016,4 hPa 0,0 mm 2,5 km/h (1 Bft) N-NE 22 0 min 0 W/m 10,7 C 15,1 C 6,5 km/h (2 Bft)
17/08/2012 05:30 15,1 C 75 % 1016,3 hPa 0,0 mm 3,2 km/h (1 Bft) E-SE 112 0 min 0 W/m 10,7 C 15,1 C 7,9 km/h (2 Bft)
17/08/2012 05:40 14,9 C 75 % 1016,2 hPa 0,0 mm 4,0 km/h (1 Bft) SE 135 0 min 0 W/m 10,5 C 14,9 C 7,6 km/h (2 Bft)
17/08/2012 05:50 14,9 C 75 % 1016,2 hPa 0,0 mm 4,7 km/h (1 Bft) E-SE 112 0 min 0 W/m 10,5 C 14,9 C 4,7 km/h (1 Bft)
17/08/2012 06:00 14,8 C 75 % 1016,0 hPa 0,0 mm 2,9 km/h (1 Bft) SE 135 0 min 0 W/m 10,4 C 14,8 C 6,1 km/h (2 Bft)
17/08/2012 06:10 14,9 C 74 % 1016,1 hPa 0,0 mm 4,7 km/h (1 Bft) E-NE 67 0 min 0 W/m 10,3 C 14,9 C 6,1 km/h (2 Bft)
17/08/2012 06:20 14,9 C 74 % 1016,0 hPa 0,0 mm 4,3 km/h (1 Bft) E 90 0 min 0 W/m 10,3 C 14,9 C 8,3 km/h (2 Bft)
17/08/2012 06:30 15,1 C 74 % 1016,1 hPa 0,0 mm 2,9 km/h (1 Bft) E-SE 112 0 min 0 W/m 10,5 C 15,1 C 4,3 km/h (1 Bft)
17/08/2012 06:40 15,1 C 73 % 1016,1 hPa 0,0 mm 4,7 km/h (1 Bft) E 90 0 min 0 W/m 10,3 C 15,1 C 6,8 km/h (2 Bft)
17/08/2012 06:50 15,1 C 73 % 1016,0 hPa 0,0 mm 2,9 km/h (1 Bft) E 90 0 min 0 W/m 10,3 C 15,1 C 5,4 km/h (2 Bft)
17/08/2012 07:00 15,1 C 73 % 1016,1 hPa 0,0 mm 3,2 km/h (1 Bft) E-SE 112 0 min 0 W/m 10,3 C 15,1 C 6,5 km/h (2 Bft)
17/08/2012 07:10 14,9 C 73 % 1016,2 hPa 0,0 mm 0,7 km/h (0 Bft) SE 135 0 min 0 W/m 10,1 C 14,9 C 4,0 km/h (1 Bft)
17/08/2012 07:20 14,8 C 73 % 1016,1 hPa 0,0 mm 3,6 km/h (1 Bft) E 90 0 min 0 W/m 10,0 C 14,8 C 7,6 km/h (2 Bft)
17/08/2012 07:30 14,8 C 73 % 1016,2 hPa 0,0 mm 1,8 km/h (1 Bft) E 90 0 min 0 W/m 10,0 C 14,8 C 6,1 km/h (2 Bft)
17/08/2012 07:40 14,8 C 73 % 1016,3 hPa 0,0 mm 2,5 km/h (1 Bft) E-SE 112 0 min 0 W/m 10,0 C 14,8 C 2,5 km/h (1 Bft)
17/08/2012 07:50 15,2 C 73 % 1016,3 hPa 0,0 mm 2,9 km/h (1 Bft) E-SE 112 0 min 0 W/m 10,4 C 15,2 C 4,3 km/h (1 Bft)
17/08/2012 08:00 15,9 C 71 % 1016,3 hPa 0,0 mm 5,0 km/h (1 Bft) SE 135 0 min 0 W/m 10,6 C 15,9 C 6,5 km/h (2 Bft)
17/08/2012 08:10 16,6 C 69 % 1016,3 hPa 0,0 mm 4,7 km/h (1 Bft) E 90 0 min 0 W/m 10,9 C 16,6 C 9,4 km/h (2 Bft)
17/08/2012 08:20 17,2 C 68 % 1016,4 hPa 0,0 mm 6,5 km/h (2 Bft) E-SE 112 0 min 0 W/m 11,2 C 17,2 C 9,4 km/h (2 Bft)
17/08/2012 08:30 17,7 C 66 % 1016,5 hPa 0,0 mm 0,7 km/h (0 Bft) E-SE 112 0 min 0 W/m 11,3 C 17,7 C 4,3 km/h (1 Bft)
17/08/2012 08:40 18,3 C 65 % 1016,5 hPa 0,0 mm 0,0 km/h (0 Bft) E-SE 112 0 min 0 W/m 11,6 C 18,3 C 0,0 km/h (0 Bft)
17/08/2012 08:50 18,9 C 63 % 1016,4 hPa 0,0 mm 4,0 km/h (1 Bft) SE 135 0 min 0 W/m 11,7 C 18,9 C 4,3 km/h (1 Bft)
17/08/2012 09:00 19,6 C 62 % 1016,5 hPa 0,0 mm 3,6 km/h (1 Bft) E-SE 112 0 min 0 W/m 12,1 C 19,6 C 6,1 km/h (2 Bft)
17/08/2012 09:10 20,3 C 60 % 1016,5 hPa 0,0 mm 1,1 km/h (1 Bft) E-SE 112 0 min 0 W/m 12,3 C 20,3 C 4,0 km/h (1 Bft)
17/08/2012 09:20 21,0 C 58 % 1016,6 hPa 0,0 mm 3,6 km/h (1 Bft) E-NE 67 0 min 0 W/m 12,4 C 21,0 C 7,2 km/h (2 Bft)
17/08/2012 09:30 21,7 C 58 % 1016,6 hPa 0,0 mm 3,6 km/h (1 Bft) E 90 0 min 0 W/m 13,1 C 21,7 C 4,3 km/h (1 Bft)
17/08/2012 09:40 22,5 C 57 % 1016,6 hPa 0,0 mm 1,1 km/h (1 Bft) E-SE 112 0 min 0 W/m 13,5 C 22,5 C 4,3 km/h (1 Bft)
17/08/2012 09:50 23,4 C 56 % 1016,6 hPa 0,0 mm 2,2 km/h (1 Bft) E-SE 112 0 min 0 W/m 14,1 C 23,4 C 4,0 km/h (1 Bft)
17/08/2012 10:00 24,3 C 54 % 1016,6 hPa 0,0 mm 2,9 km/h (1 Bft) E 90 0 min 0 W/m 14,4 C 24,3 C 4,0 km/h (1 Bft)
17/08/2012 10:10 25,3 C 52 % 1016,5 hPa 0,0 mm 3,6 km/h (1 Bft) E 90 0 min 0 W/m 14,7 C 25,3 C 6,1 km/h (2 Bft)
17/08/2012 10:20 26,1 C 49 % 1016,6 hPa 0,0 mm 4,7 km/h (1 Bft) SE 135 0 min 0 W/m 14,5 C 26,1 C 9,0 km/h (2 Bft)
17/08/2012 10:30 26,8 C 46 % 1016,7 hPa 0,0 mm 4,7 km/h (1 Bft) SE 135 0 min 0 W/m 14,2 C 26,8 C 4,7 km/h (1 Bft)
17/08/2012 10:40 27,5 C 43 % 1016,7 hPa 0,0 mm 4,7 km/h (1 Bft) N 360 0 min 0 W/m 13,8 C 27,5 C 4,7 km/h (1 Bft)
17/08/2012 10:50 28,5 C 42 % 1016,7 hPa 0,0 mm 1,1 km/h (1 Bft) E 90 0 min 0 W/m 14,3 C 28,5 C 3,6 km/h (1 Bft)
17/08/2012 11:00 29,0 C 39 % 1016,7 hPa 0,0 mm 4,7 km/h (1 Bft) E-SE 112 0 min 0 W/m 13,6 C 29,0 C 4,7 km/h (1 Bft)
17/08/2012 11:10 29,6 C 38 % 1016,7 hPa 0,0 mm 6,8 km/h (2 Bft) E-SE 112 0 min 0 W/m 13,8 C 29,6 C 8,3 km/h (2 Bft)
17/08/2012 11:20 30,1 C 36 % 1016,7 hPa 0,0 mm 4,7 km/h (1 Bft) E-SE 112 0 min 0 W/m 13,4 C 30,1 C 9,0 km/h (2 Bft)
17/08/2012 11:30 30,3 C 35 % 1016,8 hPa 0,0 mm 3,6 km/h (1 Bft) E 90 0 min 0 W/m 13,1 C 30,3 C 6,5 km/h (2 Bft)
17/08/2012 11:40 30,8 C 35 % 1016,7 hPa 0,0 mm 3,2 km/h (1 Bft) E 90 0 min 0 W/m 13,5 C 30,8 C 4,3 km/h (1 Bft)
17/08/2012 11:50 31,3 C 34 % 1016,6 hPa 0,0 mm 6,5 km/h (2 Bft) SE 135 0 min 0 W/m 13,5 C 31,3 C 7,2 km/h (2 Bft)
17/08/2012 12:00 31,8 C 33 % 1016,5 hPa 0,0 mm 9,4 km/h (2 Bft) S-SE 157 0 min 0 W/m 13,5 C 31,8 C 9,4 km/h (2 Bft)
17/08/2012 12:10 32,2 C 32 % 1016,5 hPa 0,0 mm 6,8 km/h (2 Bft) S-SE 157 0 min 0 W/m 13,4 C 32,2 C 9,0 km/h (2 Bft)
17/08/2012 12:20 32,4 C 31 % 1016,4 hPa 0,0 mm 1,4 km/h (1 Bft) S-SE 157 0 min 0 W/m 13,1 C 32,4 C 4,0 km/h (1 Bft)
17/08/2012 12:30 32,7 C 30 % 1016,3 hPa 0,0 mm 2,9 km/h (1 Bft) S-SE 157 0 min 0 W/m 12,8 C 32,7 C 4,0 km/h (1 Bft)
17/08/2012 12:40 32,9 C 27 % 1016,3 hPa 0,0 mm 3,6 km/h (1 Bft) E-NE 67 0 min 0 W/m 11,4 C 32,9 C 4,3 km/h (1 Bft)
17/08/2012 12:50 33,1 C 27 % 1016,1 hPa 0,0 mm 5,0 km/h (1 Bft) NE 45 0 min 0 W/m 11,6 C 33,1 C 9,0 km/h (2 Bft)
17/08/2012 13:00 33,2 C 27 % 1015,9 hPa 0,0 mm 4,0 km/h (1 Bft) E-NE 67 0 min 0 W/m 11,6 C 33,2 C 4,7 km/h (1 Bft)
17/08/2012 13:10 33,2 C 26 % 1015,8 hPa 0,0 mm 4,0 km/h (1 Bft) SE 135 0 min 0 W/m 11,1 C 33,2 C 6,8 km/h (2 Bft)
17/08/2012 13:20 33,3 C 25 % 1015,8 hPa 0,0 mm 7,9 km/h (2 Bft) SE 135 0 min 0 W/m 10,6 C 33,3 C 12,6 km/h (3 Bft)
17/08/2012 13:30 33,3 C 25 % 1015,7 hPa 0,0 mm 8,6 km/h (2 Bft) SE 135 0 min 0 W/m 10,6 C 33,3 C 12,2 km/h (2 Bft)
17/08/2012 13:40 33,4 C 24 % 1015,6 hPa 0,0 mm 7,6 km/h (2 Bft) S 180 0 min 0 W/m 10,0 C 33,4 C 7,6 km/h (2 Bft)
17/08/2012 13:50 33,4 C 24 % 1015,6 hPa 0,0 mm 5,4 km/h (2 Bft) S-SE 157 0 min 0 W/m 10,0 C 33,4 C 9,4 km/h (2 Bft)
17/08/2012 14:00 33,5 C 24 % 1015,5 hPa 0,0 mm 8,3 km/h (2 Bft) E-SE 112 0 min 0 W/m 10,1 C 33,5 C 13,7 km/h (3 Bft)
17/08/2012 14:10 33,7 C 24 % 1015,5 hPa 0,0 mm 7,2 km/h (2 Bft) SE 135 0 min 0 W/m 10,3 C 33,7 C 12,2 km/h (2 Bft)
17/08/2012 14:20 34,1 C 24 % 1015,5 hPa 0,0 mm 7,6 km/h (2 Bft) E 90 0 min 0 W/m 10,6 C 34,1 C 8,6 km/h (2 Bft)
17/08/2012 14:30 34,4 C 25 % 1015,5 hPa 0,0 mm 4,7 km/h (1 Bft) E 90 0 min 0 W/m 11,5 C 34,4 C 7,6 km/h (2 Bft)
17/08/2012 14:40 34,6 C 25 % 1015,5 hPa 0,0 mm 3,6 km/h (1 Bft) E-SE 112 0 min 0 W/m 11,7 C 34,6 C 7,2 km/h (2 Bft)
17/08/2012 14:50 34,6 C 25 % 1015,4 hPa 0,0 mm 9,7 km/h (2 Bft) S 180 0 min 0 W/m 11,7 C 34,6 C 17,3 km/h (3 Bft)
17/08/2012 15:00 34,7 C 26 % 1015,3 hPa 0,0 mm 4,7 km/h (1 Bft) S 180 0 min 0 W/m 12,3 C 34,7 C 4,7 km/h (1 Bft)
17/08/2012 15:10 34,9 C 26 % 1015,3 hPa 0,0 mm 1,4 km/h (1 Bft) E-SE 112 0 min 0 W/m 12,5 C 34,9 C 3,6 km/h (1 Bft)
17/08/2012 15:20 34,8 C 26 % 1015,2 hPa 0,0 mm 4,0 km/h (1 Bft) S-SE 157 0 min 0 W/m 12,4 C 34,8 C 7,6 km/h (2 Bft)
17/08/2012 15:30 34,9 C 26 % 1015,0 hPa 0,0 mm 8,6 km/h (2 Bft) S-SE 157 0 min 0 W/m 12,5 C 34,9 C 11,5 km/h (2 Bft)
17/08/2012 15:40 34,9 C 26 % 1014,8 hPa 0,0 mm 5,4 km/h (2 Bft) SE 135 0 min 0 W/m 12,5 C 34,9 C 7,6 km/h (2 Bft)
17/08/2012 15:50 35,1 C 26 % 1014,8 hPa 0,0 mm 2,5 km/h (1 Bft) S 180 0 min 0 W/m 12,7 C 35,1 C 4,7 km/h (1 Bft)
17/08/2012 16:00 35,3 C 26 % 1014,6 hPa 0,0 mm 7,6 km/h (2 Bft) SE 135 0 min 0 W/m 12,8 C 35,3 C 7,6 km/h (2 Bft)
17/08/2012 16:10 35,4 C 25 % 1014,6 hPa 0,0 mm 2,2 km/h (1 Bft) S-SE 157 0 min 0 W/m 12,3 C 35,4 C 2,2 km/h (1 Bft)
17/08/2012 16:20 35,4 C 25 % 1014,5 hPa 0,0 mm 6,8 km/h (2 Bft) S 180 0 min 0 W/m 12,3 C 35,4 C 10,8 km/h (2 Bft)
17/08/2012 16:30 35,6 C 26 % 1014,5 hPa 0,0 mm 2,5 km/h (1 Bft) SE 135 0 min 0 W/m 13,1 C 35,6 C 6,1 km/h (2 Bft)
17/08/2012 16:40 35,8 C 26 % 1014,4 hPa 0,0 mm 0,4 km/h (0 Bft) E 90 0 min 0 W/m 13,3 C 35,8 C 0,4 km/h (0 Bft)
17/08/2012 16:50 35,8 C 26 % 1014,3 hPa 0,0 mm 3,2 km/h (1 Bft) E 90 0 min 0 W/m 13,3 C 35,8 C 6,1 km/h (2 Bft)
17/08/2012 17:00 35,8 C 26 % 1014,1 hPa 0,0 mm 2,5 km/h (1 Bft) E-NE 67 0 min 0 W/m 13,3 C 35,8 C 4,3 km/h (1 Bft)
17/08/2012 17:10 35,9 C 26 % 1014,0 hPa 0,0 mm 5,0 km/h (1 Bft) E-SE 112 0 min 0 W/m 13,3 C 35,9 C 7,9 km/h (2 Bft)
17/08/2012 17:20 35,8 C 27 % 1013,9 hPa 0,0 mm 1,4 km/h (1 Bft) E 90 0 min 0 W/m 13,8 C 35,8 C 4,3 km/h (1 Bft)
17/08/2012 17:30 35,9 C 27 % 1013,8 hPa 0,0 mm 7,6 km/h (2 Bft) S-SE 157 0 min 0 W/m 13,9 C 35,9 C 8,6 km/h (2 Bft)
17/08/2012 17:40 36,0 C 27 % 1013,8 hPa 0,0 mm 6,8 km/h (2 Bft) S-SE 157 0 min 0 W/m 14,0 C 36,0 C 9,0 km/h (2 Bft)
17/08/2012 17:50 36,1 C 27 % 1013,7 hPa 0,0 mm 0,7 km/h (0 Bft) E 90 0 min 0 W/m 14,1 C 36,1 C 3,2 km/h (1 Bft)
17/08/2012 18:00 36,0 C 27 % 1013,7 hPa 0,0 mm 1,4 km/h (1 Bft) E-SE 112 0 min 0 W/m 14,0 C 36,0 C 6,8 km/h (2 Bft)
17/08/2012 18:10 35,9 C 27 % 1013,6 hPa 0,0 mm 4,0 km/h (1 Bft) SE 135 0 min 0 W/m 13,9 C 35,9 C 4,0 km/h (1 Bft)
17/08/2012 18:20 36,0 C 27 % 1013,6 hPa 0,0 mm 2,2 km/h (1 Bft) E-SE 112 0 min 0 W/m 14,0 C 36,0 C 3,6 km/h (1 Bft)
17/08/2012 18:30 36,1 C 27 % 1013,5 hPa 0,0 mm 3,6 km/h (1 Bft) S 180 0 min 0 W/m 14,1 C 36,1 C 4,0 km/h (1 Bft)
17/08/2012 18:40 36,0 C 27 % 1013,5 hPa 0,0 mm 2,5 km/h (1 Bft) SE 135 0 min 0 W/m 14,0 C 36,0 C 2,9 km/h (1 Bft)
17/08/2012 18:50 35,9 C 27 % 1013,5 hPa 0,0 mm 5,4 km/h (2 Bft) NE 45 0 min 0 W/m 13,9 C 35,9 C 6,8 km/h (2 Bft)
17/08/2012 19:00 35,8 C 28 % 1013,4 hPa 0,0 mm 2,2 km/h (1 Bft) SE 135 0 min 0 W/m 14,4 C 35,8 C 4,3 km/h (1 Bft)
17/08/2012 19:10 35,7 C 27 % 1013,4 hPa 0,0 mm 6,5 km/h (2 Bft) S-SE 157 0 min 0 W/m 13,8 C 35,7 C 6,5 km/h (2 Bft)
17/08/2012 19:20 35,5 C 28 % 1013,4 hPa 0,0 mm 1,8 km/h (1 Bft) E-SE 112 0 min 0 W/m 14,2 C 35,5 C 3,6 km/h (1 Bft)
17/08/2012 19:30 35,6 C 29 % 1013,4 hPa 0,0 mm 2,2 km/h (1 Bft) S-SE 157 0 min 0 W/m 14,8 C 35,6 C 3,6 km/h (1 Bft)
17/08/2012 19:40 35,4 C 29 % 1013,4 hPa 0,0 mm 2,2 km/h (1 Bft) S-SE 157 0 min 0 W/m 14,6 C 35,4 C 4,3 km/h (1 Bft)
17/08/2012 19:50 35,2 C 30 % 1013,4 hPa 0,0 mm 1,1 km/h (1 Bft) S-SE 157 0 min 0 W/m 15,0 C 35,2 C 4,0 km/h (1 Bft)
17/08/2012 20:00 34,8 C 32 % 1013,5 hPa 0,0 mm 2,2 km/h (1 Bft) S-SE 157 0 min 0 W/m 15,6 C 34,8 C 4,3 km/h (1 Bft)
17/08/2012 20:10 34,3 C 34 % 1013,5 hPa 0,0 mm 0,0 km/h (0 Bft) S-SE 157 0 min 0 W/m 16,1 C 34,3 C 0,0 km/h (0 Bft)
17/08/2012 20:20 33,9 C 35 % 1013,6 hPa 0,0 mm 0,0 km/h (0 Bft) S-SE 157 0 min 0 W/m 16,2 C 33,9 C 0,0 km/h (0 Bft)
17/08/2012 20:30 33,3 C 35 % 1013,6 hPa 0,0 mm 0,0 km/h (0 Bft) S-SE 157 0 min 0 W/m 15,7 C 33,3 C 0,0 km/h (0 Bft)
17/08/2012 20:40 32,6 C 37 % 1013,6 hPa 0,0 mm 0,0 km/h (0 Bft) S-SE 157 0 min 0 W/m 16,0 C 32,6 C 0,0 km/h (0 Bft)
17/08/2012 20:50 31,9 C 37 % 1013,6 hPa 0,0 mm 0,0 km/h (0 Bft) S-SE 157 0 min 0 W/m 15,4 C 31,9 C 0,0 km/h (0 Bft)
17/08/2012 21:00 31,3 C 39 % 1013,6 hPa 0,0 mm 0,0 km/h (0 Bft) S-SE 157 0 min 0 W/m 15,7 C 31,3 C 0,0 km/h (0 Bft)
17/08/2012 21:10 30,6 C 41 % 1013,7 hPa 0,0 mm 0,0 km/h (0 Bft) S-SE 157 0 min 0 W/m 15,8 C 30,6 C 0,0 km/h (0 Bft)
17/08/2012 21:20 29,8 C 42 % 1013,8 hPa 0,0 mm 0,0 km/h (0 Bft) S-SE 157 0 min 0 W/m 15,5 C 29,8 C 0,0 km/h (0 Bft)
17/08/2012 21:30 29,1 C 43 % 1013,8 hPa 0,0 mm 0,0 km/h (0 Bft) S-SE 157 0 min 0 W/m 15,2 C 29,1 C 0,0 km/h (0 Bft)
17/08/2012 21:40 28,4 C 45 % 1013,9 hPa 0,0 mm 0,0 km/h (0 Bft) S-SE 157 0 min 0 W/m 15,3 C 28,4 C 0,0 km/h (0 Bft)
17/08/2012 21:50 27,8 C 47 % 1013,9 hPa 0,0 mm 0,4 km/h (0 Bft) S-SE 157 0 min 0 W/m 15,4 C 27,8 C 0,4 km/h (0 Bft)
17/08/2012 22:00 27,5 C 47 % 1014,0 hPa 0,0 mm 0,0 km/h (0 Bft) E 90 0 min 0 W/m 15,2 C 27,5 C 0,0 km/h (0 Bft)
17/08/2012 22:10 27,3 C 48 % 1014,1 hPa 0,0 mm 0,7 km/h (0 Bft) E-SE 112 0 min 0 W/m 15,3 C 27,3 C 0,7 km/h (0 Bft)
17/08/2012 22:20 27,2 C 49 % 1014,0 hPa 0,0 mm 1,8 km/h (1 Bft) SE 135 0 min 0 W/m 15,5 C 27,2 C 6,1 km/h (2 Bft)
17/08/2012 22:30 27,1 C 51 % 1014,1 hPa 0,0 mm 3,2 km/h (1 Bft) E 90 0 min 0 W/m 16,1 C 27,1 C 3,2 km/h (1 Bft)
17/08/2012 22:40 26,9 C 52 % 1014,1 hPa 0,0 mm 2,2 km/h (1 Bft) E-NE 67 0 min 0 W/m 16,2 C 26,9 C 4,0 km/h (1 Bft)
_ Min-Heure 07:40 14:20 19:50 - 22:00 - - - - 07:40 07:40 22:00
Minimum _ 14,8 C 24 % 1013,4 hPa - 0,0 km/h (0 Bft) - - - - 10,0 C 14,8 C 0,0 km/h (0 Bft)
_ Max-Heure 18:30 06:00 11:30 22:40 14:50 - - 22:40 22:40 20:20 18:30 14:50
Maximum _ 36,1 C 75 % 1016,8 hPa 0,0 mm 9,7 km/h
S (2 Bft)
- - 0 min 0 W/m 16,2 C 36,1 C 17,3 km/h
S (3 Bft)
Moyenne _ 25,7 C 49 % 1015,5 hPa #0,0 mm 3,1 km/h (1 Bft) E-SE - #0 min. 0 W/m 12,5 C 25,7 C 5,0 km/h (1 Bft)
Saint Bonnet de Bellac- Haute Vienne - France